QPF
0.01 0.01 0.02 0.01 0.01 0.01 0.01 0.01 0.02 0.02 0.01 0.02 0.02 0.03 0.05 0.05 0.06 0.05 0.04 0.04 0.04 0.04 0.06 0.06 0.07 0.07 0.07 0.08 0.09 0.10 0.09 0.08 0.06 0.05 0.06 0.07 0.07 0.07 0.07 0.06 0.05 0.04 0.04
0.01 0.01 0.02 0.01 0.01 0.01 0.01 0.00 0.01 0.02 0.02 0.03 0.03 0.03 0.03 0.04 0.04 0.06 0.06 0.05 0.04 0.05 0.06 0.09 0.08 0.07 0.08 0.08 0.08 0.08 0.08 0.07 0.06 0.06 0.07 0.09 0.10 0.11 0.09 0.07 0.05 0.05 0.05
0.00 0.01 0.01 0.01 0.01 0.01 0.01 0.01 0.02 0.02 0.02 0.02 0.03 0.02 0.02 0.02 0.02 0.04 0.06 0.06 0.06 0.06 0.08 0.12 0.12 0.09 0.08 0.08 0.07 0.08 0.10 0.11 0.10 0.08 0.09 0.10 0.10 0.10 0.11 0.09 0.07 0.06 0.06
0.00 0.01 0.01 0.01 0.01 0.01 0.01 0.01 0.03 0.02 0.01 0.02 0.03 0.03 0.02 0.02 0.03 0.05 0.06 0.07 0.07 0.06 0.04 0.07 0.11 0.14 0.13 0.10 0.09 0.08 0.08 0.10 0.12 0.13 0.11 0.11 0.10 0.10 0.11 0.11 0.09 0.07 0.06
0.00 0.00 0.01 0.01 0.01 0.01 0.01 0.01 0.02 0.01 0.02 0.03 0.04 0.03 0.02 0.02 0.03 0.03 0.03 0.04 0.04 0.04 0.04 0.04 0.04 0.08 0.13 0.16 0.16 0.14 0.12 0.12 0.11 0.11 0.12 0.12 0.12 0.11 0.10 0.09 0.08 0.07 0.05
0.02 0.01 0.01 0.01 0.01 0.01 0.01 0.01 0.01 0.01 0.03 0.03 0.02 0.02 0.02 0.02 0.02 0.04 0.04 0.03 0.03 0.02 0.02 0.02 0.03 0.04 0.06 0.09 0.12 0.13 0.12 0.13 0.12 0.12 0.12 0.12 0.11 0.10 0.09 0.06 0.05 0.06 0.06
0.04 0.01 0.01 0.01 0.01 0.01 0.01 0.01 0.01 0.02 0.03 0.02 0.02 0.01 0.02 0.02 0.02 0.04 0.04 0.04 0.02 0.02 0.02 0.02 0.03 0.03 0.04 0.05 0.06 0.06 0.07 0.07 0.08 0.08 0.09 0.09 0.08 0.08 0.07 0.06 0.04 0.04 0.05
0.02 0.01 0.01 0.00 0.00 0.00 0.00 0.01 0.01 0.01 0.03 0.02 0.02 0.01 0.01 0.02 0.02 0.04 0.06 0.04 0.02 0.02 0.02 0.02 0.03 0.03 0.03 0.03 0.03 0.03 0.03 0.04 0.04 0.04 0.06 0.06 0.06 0.07 0.06 0.05 0.05 0.03 0.03
0.02 0.01 0.01 0.00 0.00 0.00 0.01 0.01 0.01 0.01 0.02 0.02 0.02 0.02 0.02 0.02 0.04 0.08 0.06 0.02 0.02 0.02 0.03 0.03 0.04 0.04 0.04 0.04 0.03 0.03 0.03 0.03 0.03 0.03 0.04 0.04 0.05 0.06 0.06 0.05 0.05 0.04 0.03
0.01 0.01 0.01 0.00 0.00 0.00 0.00 0.00 0.00 0.01 0.01 0.01 0.01 0.01 0.02 0.02 0.03 0.06 0.04 0.03 0.03 0.03 0.04 0.04 0.03 0.04 0.04 0.03 0.03 0.04 0.04 0.04 0.03 0.02 0.02 0.03 0.02 0.04 0.04 0.04 0.04 0.04 0.03
0.01 0.01 0.01 0.01 0.01 0.01 0.01 0.01 0.00 0.01 0.01 0.01 0.01 0.01 0.02 0.02 0.02 0.04 0.04 0.04 0.05 0.04 0.04 0.04 0.03 0.02 0.02 0.03 0.04 0.04 0.04 0.04 0.04 0.03 0.02 0.02 0.02 0.02 0.03 0.03 0.03 0.03 0.03
0.01 0.01 0.01 0.01 0.01 0.00 0.00 0.00 0.00 0.01 0.01 0.01 0.01 0.02 0.02 0.02 0.02 0.03 0.05 0.06 0.06 0.05 0.04 0.05 0.04 0.02 0.03 0.03 0.04 0.04 0.05 0.05 0.04 0.04 0.03 0.02 0.02 0.02 0.02 0.03 0.03 0.05 0.04
0.01 0.01 0.01 0.01 0.01 0.02 0.02 0.01 0.01 0.01 0.01 0.01 0.01 0.02 0.02 0.02 0.02 0.03 0.05 0.07 0.06 0.05 0.04 0.04 0.04 0.03 0.03 0.05 0.05 0.04 0.05 0.04 0.04 0.04 0.04 0.03 0.03 0.03 0.03 0.03 0.04 0.05 0.04
0.00 0.00 0.01 0.03 0.04 0.06 0.06 0.04 0.02 0.01 0.01 0.01 0.01 0.02 0.02 0.01 0.01 0.02 0.04 0.04 0.03 0.02 0.02 0.03 0.03 0.03 0.04 0.03 0.03 0.03 0.04 0.04 0.04 0.04 0.04 0.04 0.04 0.03 0.03 0.03 0.04 0.04 0.04
0.00 0.00 0.01 0.02 0.02 0.03 0.03 0.03 0.04 0.03 0.02 0.02 0.02 0.03 0.03 0.02 0.02 0.02 0.03 0.02 0.02 0.02 0.02 0.02 0.02 0.03 0.03 0.02 0.02 0.03 0.03 0.03 0.04 0.03 0.03 0.02 0.02 0.03 0.03 0.03 0.03 0.03 0.03
0.01 0.02 0.02 0.02 0.02 0.02 0.02 0.02 0.02 0.02 0.03 0.03 0.03 0.03 0.03 0.03 0.03 0.03 0.03 0.03 0.02 0.02 0.02 0.02 0.02 0.02 0.01 0.02 0.03 0.03 0.03 0.03 0.04 0.03 0.03 0.03 0.02 0.02 0.03 0.03 0.03 0.03 0.03
0.01 0.01 0.02 0.01 0.01 0.01 0.02 0.02 0.02 0.03 0.03 0.03 0.03 0.02 0.02 0.02 0.02 0.02 0.02 0.02 0.02 0.02 0.02 0.01 0.02 0.02 0.02 0.02 0.03 0.04 0.04 0.04 0.04 0.04 0.04 0.05 0.04 0.04 0.04 0.03 0.02 0.02 0.01
0.00 0.00 0.01 0.01 0.03 0.03 0.03 0.02 0.02 0.02 0.03 0.03 0.02 0.02 0.02 0.02 0.02 0.01 0.01 0.01 0.02 0.02 0.02 0.01 0.01 0.02 0.02 0.02 0.02 0.04 0.05 0.05 0.05 0.05 0.05 0.05 0.05 0.04 0.05 0.04 0.03 0.02 0.01
0.00 0.00 0.01 0.01 0.02 0.02 0.02 0.02 0.01 0.01 0.01 0.01 0.02 0.01 0.01 0.02 0.02 0.01 0.01 0.01 0.02 0.02 0.02 0.02 0.02 0.02 0.02 0.02 0.02 0.04 0.03 0.03 0.03 0.04 0.05 0.05 0.05 0.05 0.05 0.04 0.04 0.04 0.03
0.00 0.00 0.01 0.01 0.01 0.01 0.01 0.01 0.01 0.01 0.01 0.01 0.01 0.01 0.01 0.01 0.01 0.01 0.01 0.01 0.01 0.02 0.03 0.03 0.04 0.04 0.03 0.03 0.03 0.04 0.03 0.03 0.03 0.03 0.03 0.04 0.04 0.04 0.04 0.03 0.03 0.04 0.04
0.00 0.00 0.00 0.01 0.01 0.01 0.01 0.01 0.01 0.01 0.01 0.01 0.01 0.01 0.01 0.01 0.01 0.01 0.01 0.01 0.01 0.02 0.04 0.04 0.05 0.06 0.06 0.05 0.05 0.04 0.03 0.02 0.03 0.03 0.03 0.03 0.03 0.03 0.04 0.03 0.03 0.05 0.05
0.00 0.00 0.00 0.00 0.01 0.01 0.02 0.02 0.02 0.02 0.03 0.03 0.02 0.01 0.02 0.02 0.02 0.03 0.03 0.03 0.03 0.02 0.03 0.03 0.05 0.05 0.06 0.08 0.07 0.05 0.04 0.03 0.03 0.03 0.04 0.04 0.03 0.03 0.03 0.03 0.04 0.05 0.05
0.00 0.00 0.01 0.01 0.01 0.01 0.02 0.02 0.03 0.03 0.04 0.04 0.04 0.04 0.04 0.04 0.04 0.04 0.04 0.03 0.03 0.02 0.02 0.03 0.04 0.05 0.05 0.06 0.07 0.07 0.06 0.06 0.05 0.05 0.04 0.03 0.02 0.02 0.02 0.02 0.02 0.03 0.03
0.00 0.01 0.01 0.01 0.01 0.01 0.01 0.02 0.02 0.03 0.04 0.05 0.05 0.05 0.05 0.06 0.07 0.06 0.06 0.05 0.04 0.05 0.05 0.05 0.05 0.05 0.04 0.03 0.03 0.04 0.04 0.03 0.03 0.03 0.02 0.02 0.02 0.01 0.01 0.01 0.01 0.01 0.02
0.00 0.00 0.00 0.00 0.00 0.01 0.01 0.01 0.01 0.03 0.05 0.06 0.06 0.06 0.06 0.07 0.07 0.06 0.06 0.06 0.06 0.07 0.08 0.08 0.08 0.07 0.05 0.03 0.02 0.03 0.03 0.02 0.02 0.02 0.03 0.02 0.02 0.02 0.01 0.02 0.02 0.02 0.02
0.01 0.01 0.01 0.01 0.01 0.01 0.01 0.01 0.02 0.03 0.04 0.04 0.05 0.05 0.05 0.05 0.05 0.05 0.05 0.05 0.04 0.04 0.04 0.05 0.06 0.05 0.05 0.03 0.03 0.03 0.03 0.04 0.04 0.04 0.02 0.02 0.02 0.02 0.02 0.03 0.03 0.03 0.03
MSLP
1007.97 1008.42 1008.87 1009.29 1009.68 1010.07 1010.46 1010.87 1011.32 1011.78 1012.23 1012.64 1012.98 1013.22 1013.36 1013.41 1013.39 1013.35 1013.32 1013.32 1013.36 1013.46 1013.60 1013.76 1013.94 1014.14 1014.33 1014.55 1014.77 1015.01 1015.25 1015.46 1015.63 1015.72 1015.70 1015.56 1015.28 1014.91 1014.46 1013.99 1013.55 1013.20 1012.96
1007.12 1007.54 1007.97 1008.39 1008.78 1009.18 1009.58 1010.03 1010.51 1011.02 1011.52 1011.98 1012.37 1012.64 1012.80 1012.85 1012.82 1012.75 1012.68 1012.66 1012.69 1012.78 1012.93 1013.12 1013.33 1013.54 1013.76 1013.98 1014.21 1014.45 1014.68 1014.91 1015.10 1015.23 1015.26 1015.18 1014.97 1014.65 1014.23 1013.78 1013.33 1012.93 1012.64
1006.20 1006.59 1007.01 1007.42 1007.82 1008.23 1008.65 1009.12 1009.64 1010.19 1010.74 1011.25 1011.67 1011.98 1012.16 1012.21 1012.17 1012.08 1011.99 1011.93 1011.94 1012.02 1012.16 1012.36 1012.58 1012.81 1013.03 1013.26 1013.48 1013.71 1013.95 1014.19 1014.41 1014.58 1014.68 1014.67 1014.55 1014.31 1013.97 1013.56 1013.13 1012.72 1012.40
1005.26 1005.63 1006.04 1006.45 1006.86 1007.28 1007.72 1008.21 1008.75 1009.33 1009.91 1010.46 1010.92 1011.26 1011.46 1011.53 1011.48 1011.37 1011.25 1011.16 1011.14 1011.19 1011.31 1011.49 1011.70 1011.93 1012.16 1012.38 1012.60 1012.83 1013.07 1013.32 1013.56 1013.78 1013.95 1014.03 1014.01 1013.87 1013.62 1013.29 1012.91 1012.53 1012.20
1004.36 1004.71 1005.12 1005.55 1005.97 1006.40 1006.85 1007.35 1007.90 1008.49 1009.09 1009.66 1010.14 1010.51 1010.73 1010.81 1010.76 1010.64 1010.49 1010.36 1010.29 1010.30 1010.39 1010.54 1010.73 1010.95 1011.17 1011.38 1011.60 1011.83 1012.07 1012.33 1012.60 1012.87 1013.10 1013.26 1013.34 1013.31 1013.17 1012.94 1012.64 1012.31 1012.00
1003.57 1003.93 1004.35 1004.79 1005.23 1005.66 1006.11 1006.60 1007.14 1007.71 1008.31 1008.88 1009.37 1009.75 1009.99 1010.07 1010.03 1009.90 1009.72 1009.56 1009.45 1009.40 1009.44 1009.55 1009.72 1009.91 1010.11 1010.32 1010.54 1010.77 1011.01 1011.28 1011.57 1011.86 1012.14 1012.38 1012.55 1012.63 1012.60 1012.48 1012.27 1012.02 1011.76
1002.96 1003.33 1003.78 1004.24 1004.69 1005.12 1005.55 1006.01 1006.51 1007.05 1007.61 1008.16 1008.64 1009.02 1009.26 1009.36 1009.32 1009.18 1008.98 1008.79 1008.62 1008.53 1008.52 1008.58 1008.70 1008.87 1009.06 1009.26 1009.47 1009.70 1009.94 1010.21 1010.50 1010.82 1011.13 1011.42 1011.66 1011.83 1011.91 1011.90 1011.81 1011.65 1011.46
1002.57 1002.97 1003.44 1003.92 1004.38 1004.80 1005.21 1005.62 1006.06 1006.54 1007.04 1007.54 1007.99 1008.35 1008.59 1008.69 1008.65 1008.51 1008.30 1008.07 1007.87 1007.73 1007.66 1007.67 1007.75 1007.89 1008.06 1008.25 1008.45 1008.67 1008.91 1009.17 1009.45 1009.76 1010.09 1010.40 1010.70 1010.94 1011.12 1011.22 1011.24 1011.19 1011.10
1002.42 1002.86 1003.36 1003.86 1004.31 1004.71 1005.08 1005.43 1005.80 1006.20 1006.63 1007.06 1007.47 1007.80 1008.02 1008.12 1008.08 1007.94 1007.72 1007.46 1007.22 1007.03 1006.90 1006.86 1006.90 1007.00 1007.14 1007.31 1007.51 1007.71 1007.94 1008.18 1008.45 1008.74 1009.05 1009.38 1009.70 1010.00 1010.26 1010.46 1010.60 1010.67 1010.69
1002.48 1002.96 1003.49 1004.00 1004.45 1004.83 1005.15 1005.44 1005.74 1006.06 1006.40 1006.76 1007.11 1007.40 1007.60 1007.69 1007.65 1007.49 1007.26 1006.98 1006.70 1006.45 1006.27 1006.17 1006.15 1006.21 1006.32 1006.46 1006.64 1006.83 1007.03 1007.25 1007.49 1007.76 1008.05 1008.37 1008.71 1009.04 1009.37 1009.66 1009.91 1010.10 1010.24
1002.70 1003.22 1003.77 1004.30 1004.74 1005.10 1005.39 1005.63 1005.85 1006.10 1006.37 1006.66 1006.94 1007.18 1007.35 1007.42 1007.36 1007.20 1006.94 1006.63 1006.31 1006.01 1005.76 1005.60 1005.51 1005.51 1005.57 1005.67 1005.81 1005.98 1006.16 1006.35 1006.57 1006.81 1007.08 1007.39 1007.73 1008.10 1008.48 1008.84 1009.19 1009.50 1009.76
1002.99 1003.54 1004.12 1004.66 1005.11 1005.46 1005.72 1005.93 1006.11 1006.30 1006.51 1006.74 1006.96 1007.16 1007.28 1007.31 1007.23 1007.04 1006.76 1006.41 1006.03 1005.66 1005.34 1005.09 1004.93 1004.84 1004.84 1004.89 1004.99 1005.12 1005.27 1005.44 1005.63 1005.86 1006.12 1006.43 1006.78 1007.17 1007.59 1008.03 1008.46 1008.87 1009.24
1003.25 1003.84 1004.44 1005.00 1005.46 1005.82 1006.09 1006.29 1006.46 1006.62 1006.79 1006.97 1007.14 1007.28 1007.36 1007.35 1007.23 1007.00 1006.67 1006.26 1005.82 1005.37 1004.96 1004.62 1004.35 1004.18 1004.08 1004.06 1004.10 1004.19 1004.31 1004.47 1004.65 1004.88 1005.14 1005.46 1005.84 1006.26 1006.72 1007.22 1007.72 1008.21 1008.67
1003.43 1004.06 1004.68 1005.26 1005.75 1006.14 1006.44 1006.66 1006.84 1007.00 1007.15 1007.30 1007.43 1007.52 1007.55 1007.48 1007.31 1007.02 1006.63 1006.16 1005.64 1005.10 1004.59 1004.14 1003.76 1003.48 1003.28 1003.17 1003.14 1003.17 1003.27 1003.41 1003.60 1003.84 1004.14 1004.49 1004.90 1005.36 1005.87 1006.42 1006.98 1007.53 1008.06
1003.50 1004.15 1004.80 1005.41 1005.94 1006.37 1006.72 1006.99 1007.21 1007.39 1007.55 1007.67 1007.77 1007.81 1007.79 1007.66 1007.42 1007.07 1006.61 1006.07 1005.47 1004.84 1004.23 1003.66 1003.16 1002.75 1002.44 1002.23 1002.12 1002.10 1002.16 1002.29 1002.50 1002.77 1003.11 1003.52 1003.98 1004.50 1005.06 1005.65 1006.25 1006.85 1007.43
1003.45 1004.13 1004.81 1005.46 1006.03 1006.53 1006.94 1007.27 1007.54 1007.75 1007.92 1008.04 1008.10 1008.10 1008.01 1007.83 1007.53 1007.12 1006.60 1005.99 1005.32 1004.61 1003.90 1003.23 1002.61 1002.08 1001.65 1001.33 1001.13 1001.04 1001.07 1001.20 1001.43 1001.74 1002.14 1002.61 1003.14 1003.72 1004.34 1004.97 1005.61 1006.24 1006.84
1003.35 1004.06 1004.76 1005.44 1006.07 1006.62 1007.09 1007.48 1007.80 1008.05 1008.23 1008.34 1008.38 1008.34 1008.20 1007.96 1007.62 1007.16 1006.60 1005.95 1005.23 1004.47 1003.69 1002.93 1002.21 1001.57 1001.03 1000.60 1000.31 1000.15 1000.14 1000.26 1000.51 1000.88 1001.34 1001.88 1002.48 1003.13 1003.80 1004.47 1005.14 1005.79 1006.40
1003.26 1003.99 1004.72 1005.43 1006.10 1006.69 1007.22 1007.66 1008.01 1008.29 1008.47 1008.57 1008.59 1008.51 1008.34 1008.07 1007.70 1007.23 1006.66 1006.00 1005.28 1004.50 1003.69 1002.87 1002.09 1001.37 1000.73 1000.22 999.84 999.62 999.56 999.67 999.93 1000.33 1000.85 1001.46 1002.13 1002.84 1003.55 1004.26 1004.95 1005.60 1006.21
1003.26 1004.01 1004.76 1005.49 1006.18 1006.80 1007.35 1007.82 1008.19 1008.47 1008.65 1008.74 1008.73 1008.63 1008.44 1008.17 1007.80 1007.35 1006.82 1006.21 1005.52 1004.78 1003.99 1003.17 1002.37 1001.60 1000.91 1000.32 999.87 999.59 999.49 999.57 999.83 1000.26 1000.81 1001.47 1002.19 1002.95 1003.70 1004.43 1005.12 1005.76 1006.35
1003.40 1004.17 1004.93 1005.66 1006.35 1006.98 1007.53 1007.99 1008.36 1008.63 1008.79 1008.86 1008.84 1008.73 1008.55 1008.29 1007.97 1007.58 1007.13 1006.60 1006.01 1005.36 1004.64 1003.88 1003.10 1002.33 1001.62 1000.99 1000.49 1000.16 1000.01 1000.06 1000.31 1000.73 1001.30 1001.98 1002.73 1003.51 1004.28 1005.01 1005.69 1006.31 1006.87
1003.70 1004.47 1005.22 1005.95 1006.62 1007.23 1007.76 1008.20 1008.54 1008.78 1008.92 1008.97 1008.94 1008.83 1008.68 1008.47 1008.22 1007.93 1007.60 1007.21 1006.75 1006.23 1005.63 1004.97 1004.27 1003.54 1002.85 1002.21 1001.69 1001.32 1001.13 1001.15 1001.36 1001.76 1002.32 1002.99 1003.73 1004.51 1005.26 1005.98 1006.63 1007.20 1007.72
1004.12 1004.89 1005.63 1006.33 1006.97 1007.54 1008.04 1008.44 1008.74 1008.94 1009.06 1009.09 1009.06 1008.98 1008.86 1008.72 1008.57 1008.40 1008.20 1007.97 1007.68 1007.32 1006.88 1006.35 1005.76 1005.12 1004.48 1003.87 1003.35 1002.96 1002.74 1002.72 1002.89 1003.25 1003.76 1004.39 1005.10 1005.84 1006.56 1007.22 1007.83 1008.35 1008.81
1004.61 1005.37 1006.09 1006.76 1007.36 1007.89 1008.34 1008.70 1008.96 1009.13 1009.22 1009.24 1009.22 1009.17 1009.10 1009.04 1008.99 1008.94 1008.89 1008.82 1008.70 1008.51 1008.23 1007.86 1007.40 1006.87 1006.31 1005.76 1005.27 1004.89 1004.65 1004.59 1004.71 1005.01 1005.46 1006.03 1006.67 1007.34 1008.00 1008.60 1009.14 1009.60 1009.99
1005.09 1005.83 1006.53 1007.17 1007.74 1008.23 1008.64 1008.96 1009.19 1009.34 1009.41 1009.44 1009.43 1009.41 1009.40 1009.42 1009.46 1009.52 1009.60 1009.66 1009.69 1009.66 1009.54 1009.32 1009.00 1008.60 1008.14 1007.67 1007.23 1006.87 1006.62 1006.54 1006.61 1006.85 1007.22 1007.71 1008.26 1008.85 1009.42 1009.94 1010.40 1010.79 1011.11
1005.48 1006.22 1006.90 1007.52 1008.07 1008.53 1008.91 1009.21 1009.42 1009.56 1009.64 1009.68 1009.70 1009.71 1009.75 1009.82 1009.93 1010.07 1010.24 1010.41 1010.56 1010.65 1010.66 1010.57 1010.38 1010.10 1009.75 1009.37 1009.00 1008.68 1008.45 1008.35 1008.38 1008.56 1008.86 1009.25 1009.71 1010.20 1010.67 1011.10 1011.48 1011.80 1012.05
1005.74 1006.47 1007.15 1007.76 1008.30 1008.76 1009.13 1009.43 1009.65 1009.80 1009.90 1009.96 1010.00 1010.05 1010.11 1010.22 1010.37 1010.56 1010.78 1011.01 1011.22 1011.39 1011.50 1011.51 1011.43 1011.26 1011.02 1010.73 1010.44 1010.17 1009.98 1009.87 1009.88 1010.01 1010.23 1010.55 1010.91 1011.30 1011.68 1012.03 1012.33 1012.57 1012.78
Thickness
5817 5816 5813 5810 5806 5802 5798 5795 5791 5789 5787 5786 5784 5782 5782 5782 5782 5781 5778 5777 5776 5776 5774 5775 5772 5771 5769 5767 5766 5764 5761 5760 5759 5757 5755 5756 5757 5755 5754 5753 5752 5750 5748
5814 5813 5812 5810 5806 5802 5799 5796 5793 5791 5788 5787 5785 5783 5782 5782 5781 5781 5777 5776 5776 5775 5776 5773 5772 5771 5768 5765 5764 5762 5761 5760 5759 5756 5752 5748 5749 5750 5753 5751 5749 5747 5746
5815 5812 5810 5809 5807 5804 5800 5799 5795 5792 5790 5788 5787 5784 5781 5780 5780 5778 5776 5776 5775 5774 5773 5772 5771 5769 5768 5766 5763 5762 5758 5757 5757 5757 5752 5746 5743 5745 5748 5746 5746 5744 5743
5818 5815 5812 5809 5808 5806 5804 5799 5795 5792 5790 5788 5786 5782 5779 5778 5777 5777 5776 5775 5774 5772 5772 5770 5769 5767 5767 5764 5763 5762 5759 5756 5754 5754 5752 5749 5747 5742 5739 5742 5744 5742 5740
5819 5816 5815 5811 5810 5808 5805 5800 5795 5791 5790 5788 5785 5781 5780 5779 5779 5777 5773 5772 5772 5771 5770 5768 5767 5765 5764 5762 5760 5758 5757 5756 5754 5753 5751 5748 5745 5743 5738 5734 5736 5738 5739
5821 5819 5816 5813 5810 5808 5805 5800 5793 5789 5788 5786 5784 5781 5779 5777 5775 5773 5772 5771 5771 5770 5769 5767 5766 5764 5763 5760 5758 5756 5755 5753 5751 5751 5750 5747 5744 5741 5738 5734 5733 5734 5737
5820 5818 5814 5811 5808 5805 5802 5799 5793 5789 5787 5785 5782 5780 5778 5776 5773 5772 5770 5769 5770 5769 5767 5767 5764 5763 5760 5759 5757 5755 5753 5752 5749 5747 5747 5746 5745 5743 5738 5735 5733 5732 5735
5820 5817 5815 5811 5807 5805 5802 5798 5793 5789 5787 5784 5781 5780 5778 5777 5775 5772 5771 5769 5769 5769 5766 5764 5762 5760 5758 5757 5755 5754 5752 5750 5747 5746 5744 5743 5743 5742 5738 5734 5731 5728 5730
5817 5816 5814 5811 5807 5804 5801 5798 5793 5789 5787 5784 5781 5778 5776 5775 5773 5771 5769 5769 5766 5766 5764 5761 5759 5758 5756 5754 5753 5751 5749 5748 5746 5745 5742 5741 5741 5739 5738 5735 5732 5727 5724
5815 5813 5812 5809 5807 5804 5801 5798 5793 5788 5786 5783 5781 5779 5775 5773 5770 5769 5767 5765 5764 5762 5760 5758 5757 5755 5754 5752 5750 5749 5746 5744 5742 5741 5739 5737 5738 5737 5735 5733 5731 5729 5725
5812 5811 5810 5808 5806 5804 5800 5794 5790 5786 5783 5781 5779 5776 5773 5771 5769 5766 5764 5762 5760 5758 5756 5754 5753 5752 5750 5749 5747 5746 5744 5741 5739 5738 5736 5734 5733 5734 5733 5731 5729 5727 5724
5811 5810 5807 5805 5802 5799 5796 5792 5789 5785 5782 5779 5776 5773 5770 5768 5765 5763 5761 5758 5756 5755 5753 5751 5749 5748 5746 5745 5743 5741 5740 5738 5736 5734 5732 5731 5731 5728 5728 5726 5725 5723 5721
5804 5804 5801 5797 5795 5794 5790 5787 5784 5782 5780 5777 5774 5770 5768 5765 5762 5760 5758 5755 5753 5751 5749 5747 5744 5743 5742 5740 5739 5737 5735 5734 5733 5731 5729 5727 5726 5724 5723 5721 5721 5720 5720
5795 5794 5791 5789 5788 5787 5784 5782 5780 5779 5776 5773 5770 5766 5764 5762 5760 5757 5754 5752 5750 5748 5746 5743 5741 5739 5738 5736 5734 5732 5730 5729 5728 5727 5725 5724 5722 5720 5719 5718 5716 5715 5714
5787 5785 5783 5782 5782 5780 5779 5777 5775 5774 5772 5767 5764 5761 5760 5758 5756 5753 5751 5748 5746 5745 5741 5738 5736 5735 5733 5732 5729 5727 5726 5724 5724 5723 5722 5721 5718 5716 5715 5715 5713 5711 5709
5780 5779 5778 5777 5776 5775 5773 5771 5769 5767 5765 5761 5759 5757 5755 5753 5750 5749 5746 5744 5741 5739 5736 5734 5732 5730 5730 5725 5721 5719 5721 5720 5719 5718 5718 5717 5714 5712 5708 5707 5706 5704 5703
5774 5773 5772 5771 5770 5770 5768 5765 5764 5761 5758 5755 5753 5752 5750 5747 5746 5744 5741 5739 5736 5734 5731 5729 5727 5725 5722 5718 5715 5713 5714 5716 5715 5714 5713 5714 5715 5709 5708 5704 5700 5699 5697
5769 5767 5767 5766 5765 5764 5762 5760 5758 5754 5751 5749 5747 5746 5743 5741 5739 5737 5735 5733 5731 5729 5726 5724 5722 5720 5718 5713 5710 5708 5709 5710 5710 5709 5708 5707 5707 5705 5702 5700 5699 5697 5696
5764 5763 5763 5762 5759 5757 5754 5752 5749 5747 5744 5742 5740 5739 5737 5734 5732 5730 5728 5726 5725 5723 5721 5719 5717 5715 5713 5708 5705 5702 5705 5705 5705 5705 5704 5702 5701 5697 5693 5693 5693 5692 5692
5758 5757 5757 5755 5751 5748 5747 5743 5740 5738 5735 5734 5733 5732 5730 5727 5725 5723 5722 5721 5719 5717 5717 5714 5713 5711 5709 5704 5700 5697 5701 5701 5701 5700 5699 5695 5693 5690 5686 5687 5687 5686 5686
5749 5749 5748 5745 5742 5741 5738 5734 5732 5729 5728 5727 5725 5724 5722 5720 5719 5717 5715 5713 5712 5711 5709 5708 5707 5706 5704 5700 5695 5692 5695 5696 5695 5695 5694 5693 5686 5682 5679 5678 5680 5680 5678
5738 5738 5737 5735 5733 5732 5728 5724 5722 5722 5721 5718 5716 5714 5713 5713 5712 5709 5707 5706 5704 5703 5702 5701 5700 5701 5699 5695 5691 5687 5685 5685 5687 5687 5688 5686 5678 5675 5672 5672 5671 5669 5668
5728 5728 5727 5724 5723 5722 5719 5715 5714 5714 5712 5710 5707 5706 5705 5704 5703 5701 5700 5698 5697 5699 5699 5697 5695 5695 5694 5691 5685 5680 5678 5676 5677 5680 5677 5674 5669 5667 5666 5664 5662 5661 5664
5719 5719 5717 5714 5712 5711 5710 5708 5706 5705 5703 5701 5699 5698 5697 5695 5694 5693 5693 5692 5692 5691 5691 5689 5688 5688 5687 5685 5682 5679 5674 5669 5669 5670 5668 5664 5662 5660 5660 5659 5657 5657 5658
5709 5708 5706 5703 5702 5702 5700 5699 5697 5695 5693 5691 5690 5690 5689 5688 5685 5685 5684 5685 5684 5682 5679 5680 5679 5679 5678 5675 5671 5670 5669 5667 5665 5662 5661 5661 5660 5658 5657 5656 5655 5652 5650
5699 5698 5697 5695 5694 5693 5691 5690 5688 5686 5684 5682 5682 5683 5683 5682 5681 5679 5678 5674 5673 5670 5667 5666 5665 5667 5665 5662 5660 5658 5657 5654 5652 5651 5654 5653 5653 5652 5651 5649 5647 5645 5643